When you browse on this site, cookies collect data to enhance your experience and personalize the content and advertising you see.
Visit our Privacy Policy to learn more. By continuing to use the site, you agree to this use of cookies and data.
  • In Hungary
  • List of Countries
  • For 7 days
  • Water Temperature
  • Weather Map
  • News
  • Weather Widgets
  • user-avatar
    Login

    Hourly Weather Tolkuny

    Today, 20 October, Sunday

    Time Temperature Precipitation Wind Pressure Humidity
    00:00 +12°C° 0.3 mm 2 mps 744 mmHg 96%
    01:00 +12°C° 0.3 mm 2 mps 744 mmHg 96%
    02:00 +12°C° 0 mm 1 mps 744 mmHg 95%
    03:00 +12°C° 0.4 mm 1 mps 744 mmHg 94%
    04:00 +12°C° 0.4 mm 1 mps 744 mmHg 94%
    05:00 +12°C° 0.4 mm 1 mps 744 mmHg 93%
    06:00 +12°C° 0 mm 2 mps 744 mmHg 91%
    07:00 +12°C° 0 mm 2 mps 744 mmHg 90%
    08:00 +12°C° 0 mm 2 mps 745 mmHg 88%
    09:00 +13°C° 0 mm 2 mps 745 mmHg 86%
    10:00 +13°C° 0 mm 2 mps 745 mmHg 84%
    11:00 +14°C° 0 mm 2 mps 745 mmHg 82%
    12:00 +14°C° 0 mm 2 mps 745 mmHg 81%
    13:00 +15°C° 0 mm 2 mps 745 mmHg 79%
    14:00 +15°C° 0 mm 2 mps 745 mmHg 84%
    15:00 +14°C° 0.3 mm 2 mps 745 mmHg 87%
    16:00 +14°C° 0.3 mm 1 mps 745 mmHg 90%
    17:00 +13°C° 0.3 mm 1 mps 744 mmHg 93%
    18:00 +13°C° 0 mm 1 mps 744 mmHg 93%
    19:00 +13°C° 0 mm 2 mps 745 mmHg 93%
    20:00 +13°C° 0 mm 2 mps 745 mmHg 93%
    21:00 +13°C° 0 mm 2 mps 745 mmHg 93%
    22:00 +13°C° 0 mm 2 mps 744 mmHg 92%
    23:00 +13°C° 0 mm 2 mps 744 mmHg 91%

    Tomorrow, 21 October, Monday

    Time Temperature Precipitation Wind Pressure Humidity
    00:00 +12°C° 0 mm 2 mps 744 mmHg 92%
    01:00 +12°C° 0 mm 2 mps 744 mmHg 92%
    02:00 +11°C° 0 mm 3 mps 744 mmHg 92%
    03:00 +10°C° 0 mm 3 mps 744 mmHg 93%
    04:00 +10°C° 0 mm 3 mps 744 mmHg 93%
    05:00 +10°C° 0 mm 3 mps 744 mmHg 94%
    06:00 +10°C° 0 mm 3 mps 744 mmHg 93%
    07:00 +11°C° 0 mm 3 mps 744 mmHg 91%
    08:00 +11°C° 0 mm 3 mps 744 mmHg 90%
    09:00 +12°C° 0 mm 3 mps 744 mmHg 87%
    10:00 +13°C° 0 mm 3 mps 744 mmHg 84%
    11:00 +14°C° 0 mm 3 mps 744 mmHg 80%
    12:00 +14°C° 0 mm 3 mps 744 mmHg 80%
    13:00 +16°C° 0 mm 3 mps 744 mmHg 79%
    14:00 +16°C° 0 mm 3 mps 745 mmHg 79%
    15:00 +15°C° 0.1 mm 2 mps 745 mmHg 83%
    16:00 +14°C° 0.1 mm 2 mps 745 mmHg 88%
    17:00 +14°C° 0.1 mm 2 mps 745 mmHg 92%
    18:00 +13°C° 0.1 mm 2 mps 745 mmHg 92%
    19:00 +13°C° 0.1 mm 2 mps 746 mmHg 91%
    20:00 +12°C° 0.1 mm 1 mps 746 mmHg 90%
    21:00 +11°C° 0 mm 1 mps 746 mmHg 92%
    22:00 +10°C° 0 mm 1 mps 746 mmHg 94%
    23:00 +10°C° 0 mm 1 mps 747 mmHg 96%

    Day after tomorrow, 22 October, Tuesday

    Time Temperature Precipitation Wind Pressure Humidity
    00:00 +9°C° 0 mm 1 mps 747 mmHg 96%
    01:00 +9°C° 0 mm 1 mps 748 mmHg 97%
    02:00 +8°C° 0 mm 1 mps 748 mmHg 97%
    03:00 +8°C° 0 mm 1 mps 748 mmHg 97%
    04:00 +7°C° 0 mm 1 mps 748 mmHg 96%
    05:00 +6°C° 0 mm 0 mps 748 mmHg 96%
    06:00 +6°C° 0 mm 0 mps 749 mmHg 95%
    07:00 +7°C° 0 mm 0 mps 749 mmHg 94%
    08:00 +7°C° 0 mm 0 mps 749 mmHg 93%
    09:00 +10°C° 0 mm 1 mps 749 mmHg 87%
    10:00 +11°C° 0 mm 1 mps 749 mmHg 81%
    11:00 +12°C° 0 mm 1 mps 749 mmHg 75%
    12:00 +13°C° 0 mm 1 mps 749 mmHg 74%
    13:00 +13°C° 0 mm 2 mps 749 mmHg 73%
    14:00 +14°C° 0 mm 2 mps 748 mmHg 72%
    15:00 +13°C° 0 mm 2 mps 748 mmHg 77%
    16:00 +12°C° 0 mm 2 mps 748 mmHg 83%
    17:00 +10°C° 0 mm 2 mps 747 mmHg 89%
    18:00 +11°C° 0 mm 3 mps 747 mmHg 90%
    19:00 +11°C° 0 mm 3 mps 747 mmHg 92%
    20:00 +11°C° 0 mm 3 mps 747 mmHg 93%
    21:00 +11°C° 0 mm 3 mps 747 mmHg 94%
    22:00 +11°C° 0 mm 3 mps 746 mmHg 94%
    23:00 +11°C° 0 mm 3 mps 746 mmHg 94%

    23 October, Wednesday

    Time Temperature Precipitation Wind Pressure Humidity
    00:00 +11°C° 0 mm 3 mps 746 mmHg 95%
    01:00 +10°C° 0 mm 3 mps 746 mmHg 95%
    02:00 +10°C° 0 mm 3 mps 745 mmHg 95%
    03:00 +10°C° 0 mm 3 mps 745 mmHg 95%
    04:00 +10°C° 0 mm 3 mps 745 mmHg 96%
    05:00 +10°C° 0 mm 2 mps 745 mmHg 96%
    06:00 +10°C° 0 mm 3 mps 745 mmHg 96%
    07:00 +10°C° 0 mm 3 mps 744 mmHg 96%
    08:00 +10°C° 0 mm 3 mps 744 mmHg 95%
    09:00 +11°C° 0 mm 3 mps 744 mmHg 92%
    10:00 +13°C° 0 mm 2 mps 744 mmHg 88%
    11:00 +14°C° 0 mm 2 mps 744 mmHg 85%
    12:00 +14°C° 0 mm 2 mps 744 mmHg 85%
    13:00 +14°C° 0 mm 2 mps 744 mmHg 86%
    14:00 +15°C° 0 mm 2 mps 744 mmHg 86%
    15:00 +14°C° 0 mm 2 mps 744 mmHg 88%
    16:00 +13°C° 0 mm 2 mps 744 mmHg 91%
    17:00 +13°C° 0 mm 2 mps 744 mmHg 93%
    18:00 +12°C° 0 mm 2 mps 744 mmHg 91%
    19:00 +10°C° 0 mm 2 mps 744 mmHg 88%
    20:00 +10°C° 0 mm 2 mps 745 mmHg 86%
    21:00 +10°C° 0 mm 2 mps 745 mmHg 85%
    22:00 +10°C° 0 mm 2 mps 745 mmHg 83%
    23:00 +11°C° 0 mm 1 mps 745 mmHg 81%

    24 October, Thursday

    Time Temperature Precipitation Wind Pressure Humidity
    00:00 +10°C° 0 mm 1 mps 745 mmHg 82%
    01:00 +10°C° 0 mm 1 mps 745 mmHg 82%
    02:00 +10°C° 0 mm 1 mps 745 mmHg 83%
    03:00 +10°C° 0 mm 1 mps 745 mmHg 85%
    04:00 +9°C° 0 mm 1 mps 745 mmHg 87%
    05:00 +9°C° 0 mm 1 mps 745 mmHg 89%
    06:00 +8°C° 0 mm 0 mps 746 mmHg 89%
    07:00 +8°C° 0 mm 0 mps 746 mmHg 89%
    08:00 +8°C° 0 mm 0 mps 746 mmHg 89%
    09:00 +9°C° 0 mm 0 mps 746 mmHg 83%
    10:00 +10°C° 0 mm 0 mps 746 mmHg 77%
    11:00 +13°C° 0 mm 1 mps 747 mmHg 71%
    12:00 +13°C° 0 mm 1 mps 747 mmHg 70%
    13:00 +13°C° 0 mm 1 mps 747 mmHg 69%
    14:00 +13°C° 0 mm 1 mps 747 mmHg 68%
    15:00 +11°C° 0 mm 0 mps 747 mmHg 74%
    16:00 +10°C° 0 mm 0 mps 746 mmHg 80%
    17:00 +9°C° 0 mm 0 mps 746 mmHg 86%
    18:00 +9°C° 0 mm 0 mps 747 mmHg 87%
    19:00 +8°C° 0 mm 0 mps 747 mmHg 89%
    20:00 +8°C° 0 mm 0 mps 747 mmHg 90%
    21:00 +8°C° 0 mm 0 mps 747 mmHg 91%
    22:00 +7°C° 0 mm 0 mps 747 mmHg 91%
    23:00 +8°C° 0 mm 1 mps 747 mmHg 91%

    25 October, Friday

    Time Temperature Precipitation Wind Pressure Humidity
    00:00 +8°C° 0 mm 1 mps 747 mmHg 92%
    01:00 +8°C° 0 mm 1 mps 747 mmHg 92%
    02:00 +7°C° 0 mm 1 mps 747 mmHg 92%
    03:00 +7°C° 0 mm 1 mps 747 mmHg 92%
    04:00 +7°C° 0 mm 1 mps 747 mmHg 92%
    05:00 +7°C° 0 mm 1 mps 747 mmHg 92%
    06:00 +7°C° 0 mm 1 mps 747 mmHg 91%
    07:00 +7°C° 0 mm 1 mps 747 mmHg 90%
    08:00 +7°C° 0 mm 1 mps 747 mmHg 89%
    09:00 +8°C° 0 mm 2 mps 747 mmHg 85%
    10:00 +9°C° 0 mm 2 mps 747 mmHg 80%
    11:00 +10°C° 0 mm 2 mps 747 mmHg 75%
    12:00 +12°C° 0 mm 2 mps 747 mmHg 75%
    13:00 +13°C° 0 mm 2 mps 746 mmHg 75%
    14:00 +13°C° 0 mm 2 mps 746 mmHg 75%
    15:00 +12°C° 0 mm 2 mps 746 mmHg 81%
    16:00 +12°C° 0 mm 2 mps 746 mmHg 87%
    17:00 +10°C° 0 mm 2 mps 745 mmHg 93%
    18:00 +9°C° 0 mm 2 mps 745 mmHg 94%
    19:00 +9°C° 0 mm 3 mps 745 mmHg 95%
    20:00 +9°C° 0 mm 3 mps 745 mmHg 96%
    21:00 +10°C° 0 mm 3 mps 745 mmHg 96%
    22:00 +10°C° 0 mm 3 mps 745 mmHg 95%
    23:00 +10°C° 0 mm 4 mps 745 mmHg 95%
    Show more